N9XP-9 Weather Reports


time (UTC)temp
F
wind
direction
speed
knots
gust
knots
rain 1hr
in
rain 24hr
in
rain mn
in
humidity
%
barometer
mb
20260505124559 44 157 0.0 0.0 0.05 0.11 0.05 86 1009.0
20260505123057 45 157 0.0 0.9 0.03 0.09 0.03 83 1009.1
20260505121549 45 173 0.0 0.0 0.03 0.09 0.03 77 1008.8
20260505120059 46 179 0.0 0.9 0.02 0.08 0.02 76 1009.3
20260505114540 47 342 0.9 3.5 0.00 0.06 0.00 67 1008.6
20260505113038 49 2 0.0 2.6 0.00 0.06 0.00 58 1007.9
20260505111533 49 354 1.7 6.1 0.00 0.06 0.00 56 1007.2
20260505101524 50 338 0.0 2.6 0.00 0.06 0.00 58 1005.8
20260505100024 51 4 0.0 2.6 0.00 0.06 0.00 56 1005.9
20260505094519 51 339 0.9 4.3 0.00 0.06 0.00 54 1006.1
20260505093016 52 340 0.9 7.0 0.00 0.06 0.00 51 1006.1
20260505091514 53 4 1.7 7.0 0.00 0.06 0.00 50 1006.4
20260505090009 54 309 2.6 8.7 0.00 0.06 0.00 53 1005.6
20260505084517 54 319 0.0 4.3 0.00 0.06 0.00 54 1005.2
20260505083003 54 356 0.9 4.3 0.00 0.06 0.00 53 1004.7
20260505081600 54 325 0.0 5.2 0.00 0.06 0.00 53 1004.1
20260505080112 55 349 0.0 3.5 0.00 0.06 0.00 52 1003.8
20260505074555 55 339 0.0 5.2 0.00 0.06 0.00 52 1003.4
20260505073100 55 240 0.0 1.7 0.00 0.06 0.00 52 1003.4
20260505071552 55 303 0.0 4.3 0.00 0.06 0.00 51 1003.2
20260505070051 55 241 0.0 0.9 0.00 0.06 0.00 52 1003.1
20260505064556 56 330 0.0 0.9 0.00 0.06 0.00 52 1002.8
20260505063045 56 156 0.0 3.5 0.00 0.06 0.00 51 1002.7
20260505061544 56 342 0.0 3.5 0.00 0.06 0.00 52 1002.8
20260505060041 57 20 0.0 0.9 0.00 0.06 0.00 53 1002.8
20260505054540 57 188 0.0 1.7 0.00 0.06 0.00 57 1002.5
20260505053104 56 202 0.0 2.6 0.00 0.06 0.00 62 1002.6
20260505051536 56 238 0.0 0.9 0.00 0.06 0.00 63 1002.3
20260505041539 59 338 0.0 1.7 0.00 0.06 0.06 73 1001.4
20260505040029 60 146 0.0 0.0 0.00 0.06 0.06 74 1001.5
20260505034532 61 150 0.0 2.6 0.00 0.06 0.06 73 1001.2
20260505033029 61 120 0.0 3.5 0.00 0.06 0.06 72 1001.2
20260505031528 62 137 0.9 3.5 0.00 0.06 0.06 71 1000.7
20260505030027 62 174 0.0 4.3 0.00 0.06 0.06 70 1000.7
20260505024527 62 158 0.9 3.5 0.00 0.06 0.06 72 1001.0
20260505023026 61 186 0.0 5.2 0.00 0.06 0.06 73 1000.6
20260505021527 61 128 0.0 2.6 0.00 0.06 0.06 74 999.9
20260505020024 62 160 0.9 2.6 0.00 0.06 0.06 74 999.4
20260505014523 62 257 0.9 4.3 0.00 0.06 0.06 74 999.3
20260505013023 63 292 0.9 7.0 0.00 0.06 0.06 73 999.0
20260505011543 63 176 1.7 8.7 0.00 0.06 0.06 75 999.0
20260505010020 63 165 1.7 7.8 0.00 0.06 0.06 77 998.7
20260505004520 63 170 0.9 11.3 0.00 0.06 0.06 79 998.8
20260505003020 63 174 0.0 2.6 0.00 0.06 0.06 79 998.1
20260505001519 63 141 1.7 9.6 0.00 0.06 0.06 79 997.7
20260505000019 60 140 0.0 0.9 0.06 0.06 0.06 91 998.3
20260504234517 59 343 0.0 0.9 0.06 0.06 0.06 91 997.9
20260504233016 59 110 0.0 3.5 0.06 0.06 0.06 86 998.1
20260504231516 60 354 0.9 6.1 0.06 0.06 0.06 80 998.3
20260504230015 71 322 0.0 4.3 0.00 0.00 0.00 59 998.1
20260504224514 73 108 0.9 6.1 0.00 0.00 0.00 51 997.5
20260504223011 74 152 2.6 9.6 0.00 0.00 0.00 47 997.9
20260504221509 76 167 3.5 12.2 0.00 0.00 0.00 44 997.8
20260504220008 77 274 2.6 7.0 0.00 0.00 0.00 39 997.9
20260504214509 79 312 1.7 9.6 0.00 0.00 0.00 38 997.8
20260504213006 79 181 3.5 10.4 0.00 0.00 0.00 35 998.0
20260504211503 79 196 3.5 15.6 0.00 0.00 0.00 35 998.3
20260504210001 79 313 4.3 10.4 0.00 0.00 0.00 35 998.5
20260504204615 79 179 3.5 11.3 0.00 0.00 0.00 36 998.6
20260504203104 79 216 2.6 10.4 0.00 0.00 0.00 35 998.6
20260504201557 78 269 3.5 9.6 0.00 0.00 0.00 33 998.7
20260504200101 78 167 0.9 13.9 0.00 0.00 0.00 39 998.9
20260504194601 78 157 2.6 9.6 0.00 0.00 0.00 38 999.2
20260504193050 77 124 3.5 11.3 0.00 0.00 0.00 39 999.6
20260504191606 78 133 5.2 12.2 0.00 0.00 0.00 35 999.6
20260504190050 78 152 2.6 11.3 0.00 0.00 0.00 37 999.6
20260504184547 78 165 3.5 8.7 0.00 0.00 0.00 32 999.8
20260504183044 78 135 2.6 8.7 0.00 0.00 0.00 32 999.9
20260504181539 76 303 3.5 9.6 0.00 0.00 0.00 31 1000.0
20260504180035 76 165 4.3 12.2 0.00 0.00 0.00 34 1000.4
20260504174533 75 117 5.2 10.4 0.00 0.01 0.00 34 1000.5
20260504173031 75 146 1.7 12.2 0.00 0.01 0.00 38 1000.7
20260504171542 74 160 2.6 7.8 0.00 0.01 0.00 39 1000.8